Location: La Gardière
(47.2992°N, 0.1232°E)
Time: 06:19:20
(UTC+00:00)

Daily predictions for brighter satellites

Satellite Brightness Start Highest point End
(mag) Time Altitude Azimuth Time Altitude Azimuth Time Altitude Azimuth
In-Cosmos 22 4.3 18:03:15 10° NNW 18:08:35 80° W 18:13:51 10° S
USA 215 3.6 18:03:22 10° NE 18:09:53 70° NNW 18:16:22 10° WSW
Tsikada Rocket 4.3 18:05:24 10° SSW 18:11:50 79° W 18:18:17 10° N
SL-4 R/B 2.8 18:08:56 10° WNW 18:13:12 49° N 18:17:43 10° E
ARGOS Delta rocket 4.3 18:10:46 10° NNE 18:15:55 45° E 18:20:46 10° SSE
Timation 2 Rocket 4.4 18:11:28 10° NNW 18:17:44 46° NE 18:23:43 10° SE
SAR-Lupe-3 4.5 18:14:25 10° SSE 18:17:59 78° ENE 18:21:34 10° NNW
SKYMED 3 4.4 18:14:06 10° NNE 18:18:14 74° ESE 18:22:20 10° S
BREEZE-M DEB (TANK) 4.1 18:16:22 10° SW 18:20:34 54° SE 18:36:04 10° ENE
Okean O Rocket 2.0 18:17:52 10° SE 18:21:57 41° ENE 18:26:05 10° N
Cosmos 2219 3.7 18:19:05 10° NNW 18:24:47 67° WSW 18:30:29 10° SSE
Cosmos 1242 Rocket 2.5 18:23:52 10° S 18:27:21 56° E 18:30:51 10° NNE
BREEZE M DEB (TANK) 4.3 18:23:25 10° SSW 18:28:49 19° SSE 18:31:25 11° ESE
Spot 1 3.9 18:25:05 10° NNE 18:29:22 70° ESE 18:33:27 10° S
SL-14 R/B 3.5 18:27:08 10° N 18:30:58 47° ENE 18:34:49 10° SSE
Cosmos 2263 Rocket 2.5 18:26:39 10° NNW 18:32:12 50° ENE 18:37:44 10° SE
Cosmos 2360 4.4 18:28:18 10° SSW 18:34:02 80° WNW 18:39:48 10° NNE
Cosmos 1805 3.3 18:30:23 10° S 18:34:10 57° E 18:37:59 10° NNE
Cosmos 1674 Rocket 3.8 18:31:12 10° N 18:35:27 46° ENE 18:39:42 10° SSE
YAOGAN 1 2.5 18:31:28 10° SSE 18:35:45 68° ENE 18:40:03 10° N
Cosmos 1726 2.6 18:34:31 10° SSE 18:37:52 36° E 18:41:16 10° NNE
COBE Rocket 3.8 18:33:08 10° SSE 18:38:02 79° ENE 18:42:49 10° N
SKYMED 2 4.3 18:34:06 10° N 18:38:23 59° WNW 18:42:39 10° SSW
OBJECT-B 1.8 18:38:57 17° ENE 18:39:11 17° ENE 18:41:00 10° NNE
H-2A R/B 4.5 18:39:28 10° ENE 18:39:48 11° ENE 18:40:36 10° NE
Cosmos 2082 3.8 18:37:57 10° NNW 18:43:44 84° WSW 18:49:28 10° SSE
Cosmos 1674 4.2 18:40:29 10° NNW 18:44:01 39° W 18:47:30 10° SSW
USA 267 4.1 18:39:47 10° SSE 18:46:04 48° SW 18:52:23 10° WNW
Cosmos 1766 3.7 18:44:29 10° SSE 18:48:08 39° E 18:51:50 10° NNE
Cosmos 1697 Rocket 3.4 18:46:26 10° SW 18:51:57 58° WNW 18:57:32 10° NNE
Cosmos 2279 Rocket 4.3 18:50:43 10° NNW 18:56:56 71° W 19:03:09 10° S
Cosmos 2221 Rocket 3.8 18:53:26 10° NNW 18:57:58 78° W 19:02:30 10° S
Cosmos 1975 Rocket 4.3 18:56:46 10° NNE 19:00:15 22° ENE 19:00:50 21° E
ASTEX 1 4.2 18:55:51 10° N 19:00:44 57° W 19:05:37 10° SSW
IGS 5A 4.1 18:59:49 22° ESE 19:01:50 35° ENE 19:05:38 10° N
Cosmos 1378 Rocket 3.5 19:00:16 10° N 19:04:42 90° W 19:09:03 10° S
Resurs 01 Rocket 3.3 19:05:25 17° ENE 19:05:29 17° ENE 19:08:19 10° NNE
Cosmos 1733 4.1 19:04:40 10° SSW 19:08:19 50° WNW 19:11:59 10° N
Cosmos 968 Rocket 4.0 19:04:29 10° SSE 19:09:13 35° ESE 19:13:57 10° NE
Cosmos 1470 3.7 19:15:56 28° ENE 19:15:56 28° ENE 19:18:28 10° NNE
Cosmos 1733 Rocket 4.1 19:11:14 10° SSW 19:15:33 49° WNW 19:19:54 10° N
Meteor 2-14 Rocket 4.5 19:11:18 10° S 19:17:22 84° W 19:23:29 10° N
Cosmos 2084 4.3 19:18:12 10° WSW 19:21:52 43° NW 19:25:32 10° NNE
ISS -3.6 19:18:43 10° WNW 19:22:03 66° SSW 19:22:45 49° SSE
CZ-4B R/B 4.3 19:17:39 10° S 19:22:44 44° W 19:27:57 10° NNW
Cosmos 2322 Rocket 4.0 19:18:51 10° SSE 19:27:51 12° NE 19:28:21 10° NE
Ariane Rocket 4.5 19:25:15 19° ENE 19:25:15 19° ENE 19:28:39 10° NNE
Cosmos 841 Rocket 4.3 19:20:17 10° NNW 19:25:18 50° WSW 19:30:15 10° S
CSL-04 Rocket 3.6 19:21:40 19° SSE 19:25:32 68° ENE 19:30:54 10° N
Okean-O 2.6 19:24:11 32° SE 19:26:05 60° ENE 19:30:27 10° N
Resurs 1-3 3.8 19:26:17 39° ESE 19:27:21 49° ENE 19:31:36 10° N
CZ-4 R/B 2.4 19:23:25 10° S 19:27:26 48° W 19:31:31 10° NNW
Gbstr 26 Del rocket 4.4 19:20:56 10° SW 19:28:33 76° SSE 19:34:42 19° ENE
SJ-6B 2.5 19:30:23 44° SSE 19:31:30 79° ENE 19:35:16 10° N
Cosmos 1980 Rocket 2.9 19:26:41 10° SW 19:32:13 56° WNW 19:37:46 10° NNE
Cosmos 1570 Rocket 3.9 19:27:20 10° NNW 19:32:36 69° ENE 19:34:49 35° SE
Meteor 1-12 Rocket 4.3 19:28:22 10° S 19:34:22 89° WNW 19:40:26 10° NNE
Meteor 2-21 Rocket 4.4 19:28:33 10° S 19:34:37 88° W 19:40:43 10° N
Cosmos 1627 Rocket 4.4 19:31:36 10° S 19:37:34 58° E 19:43:34 10° NNE
JB-3 4.3 19:34:47 10° NNE 19:38:36 58° E 19:38:36 58° E
USA 186 2.0 19:40:04 57° SSW 19:40:33 69° WSW 19:43:54 10° NNW
deb Chang Zheng 4 3.8 19:41:18 45° NE 19:41:18 45° NE 19:44:55 10° N
Cosmos 1428 Rocket 4.3 19:38:50 10° S 19:44:57 73° E 19:51:11 10° NNE
Cosmos 2195 Rocket 4.4 19:38:56 10° S 19:45:07 76° E 19:51:24 10° NNE
Cosmos 2278 3.9 19:41:49 10° SSW 19:47:30 74° WNW 19:53:13 10° NNE
Cosmos 1437 Rocket 2.7 19:45:19 10° SSW 19:49:04 75° WNW 19:52:49 10° N
Meteor 1-24 Rocket 3.4 19:44:01 10° N 19:49:20 81° ENE 19:51:25 39° SSE
SL-16 R/B 2.1 19:45:11 10° S 19:50:45 61° ESE 19:56:21 10° NNE
USA 215 4.2 19:47:18 14° NE 19:52:22 41° N 19:58:23 10° WNW
SL-4 R/B 2.1 19:48:27 10° WNW 19:53:00 85° SSW 19:53:27 72° SE
Cosmos 2208 Rocket 3.9 19:50:36 10° NNW 19:56:00 85° ENE 19:57:21 52° SSE
Okean O Rocket 4.0 19:55:06 10° SW 19:58:28 22° W 20:01:53 10° NW
Cosmos 1844 Rocket 2.8 19:53:15 10° NNW 19:58:48 52° ENE 19:59:17 51° ENE
Cosmos 1908 Rocket 4.5 19:55:42 10° SSW 19:59:53 47° WNW 20:04:05 10° N
Meteor 1-22 Rocket 4.1 19:54:58 10° S 20:00:21 87° WNW 20:05:58 10° N
Cosmos 2285 Rocket 4.4 19:55:21 10° NNW 20:01:36 61° WSW 20:05:47 22° S
USA 81 3.9 19:56:52 10° N 20:02:11 90° SSW 20:03:45 47° S
Landsat 5 4.2 19:58:00 10° N 20:02:26 57° WNW 20:06:47 10° SSW
Cosmos 2278 Rocket 4.3 19:59:54 10° N 20:02:34 13° NE 20:03:03 13° NE
Cosmos 2026 Rocket 3.8 19:56:32 10° S 20:02:36 86° E 20:08:42 10° N
Cosmos 1782 Rocket 3.6 20:06:54 64° SW 20:07:25 73° W 20:11:48 10° N
Cosmos 1553 Rocket 4.0 20:02:34 10° N 20:08:53 64° ENE 20:09:43 58° ESE
MOS 1 4.2 20:08:42 64° E 20:09:06 66° ENE 20:14:44 10° N
OBJECT-B 3.5 20:09:47 15° WNW 20:09:47 15° WNW 20:10:53 10° NW
H-2A R/B 3.4 20:15:56 41° NNW 20:15:56 41° NNW 20:18:32 10° NNW
Cosmos 2263 Rocket 3.9 20:11:02 10° NW 20:15:52 29° WSW 20:20:24 11° SSW
USA 281 4.1 20:16:22 32° NE 20:16:40 33° NE 20:22:21 10° NNW
Cosmos 1844 3.7 20:14:55 10° NNW 20:20:06 62° NE 20:20:06 62° NE
Meteor 2-5 Rocket 4.4 20:15:35 10° NNW 20:20:56 50° W 20:23:46 26° SSW
Cosmos 1025 Rocket 3.9 20:24:34 10° NNW 20:28:10 48° WNW 20:28:10 48° WNW
SPOT 1/Viking Rocket 3.7 20:32:06 71° NNW 20:32:06 71° NNW 20:36:43 10° NNW
Cosmos 1975 Rocket 4.3 20:34:08 10° NNW 20:37:59 39° W 20:37:59 39° W
Resurs 01 Rocket 2.9 20:42:59 39° NW 20:42:59 39° NW 20:45:55 10° NNW
Ariane Rocket 4.2 21:05:27 39° NNW 21:05:27 39° NNW 21:08:40 10° NNW
Terra 4.1 21:07:10 18° N 21:07:10 18° N 21:08:25 10° N
Cosmos 2322 Rocket 3.5 21:01:46 10° SW 21:09:30 34° N 21:12:56 10° NNE
ATLAS 2AS CENTAUR R/B 4.2 21:01:47 10° NW 21:07:43 26° NNE 21:09:00 24° NE
NOSS 3-4 (A) 4.2 21:12:52 10° NW 21:18:30 53° N 21:18:30 53° N
NOSS 3-4 (C) 4.3 21:12:59 10° NW 21:18:36 52° N 21:18:36 52° N
USA 215 4.1 21:34:39 41° N 21:34:39 41° N 21:40:35 10° WNW
SL-16 R/B 4.0 21:30:29 10° WSW 21:35:16 27° NW 21:40:05 10° N
Cosmos 2278 Rocket 4.1 21:42:31 10° NNW 21:44:53 25° N 21:44:53 25° N
USA 281 4.3 22:03:15 39° NW 22:03:15 39° NW 22:07:20 10° NNW
ATLAS 2AS CENTAUR R/B 4.4 22:53:05 10° NW 22:56:24 28° NNW 22:56:24 28° NNW
